Regional Weather Roundup
Issued by NWS

Home | Current Version | Previous Version | Graphics & Text | Print | Product List | Glossary On
Versions: 1 2 3 4 5 6 7 8 9 10 11 12 13 14 15 16 17 18 19 20 21 22 23 24 25 26 27 28 29 30 31 32 33 34 35 36 37 38 39 40 41 42 43 44 45 46 47 48 49 50
148
ASUS43 KMPX 231201
RWRMN
WEATHER ROUNDUP FOR MINNESOTA
NATIONAL WEATHER SERVICE TWIN CITIES/CHANHASSEN MN
700 AM CDT TUE MAY 23 2017


NOTE: "FAIR" INDICATES FEW OR NO CLOUDS BELOW 12,000 FEET WITH NO
SIGNIFICANT WEATHER AND/OR OBSTRUCTIONS TO VISIBILITY. N/A MEANS
CURRENT SKY AND/OR WEATHER CONDITIONS ARE NOT AVAILABLE.

MNZ060>063-068>070-231300-
   Twin Cities Metro

CITY           SKY/WX    TMP DP  RH WIND       PRES   REMARKS
TWIN CITIES    PTSUNNY   51  44  77 NW5       29.81R
6HR MIN TEMP:  49; 6HR MAX TEMP:  55; 6HR PCP:  0.01;

ST PAUL        CLOUDY    50  47  89 N3        29.82R
CRYSTAL        CLOUDY    48  42  80 NW5       29.81R
BLAINE         PTSUNNY   48  48 100 CALM      29.81R
LAKEVILLE      CLOUDY    48  48 100 NW3       29.81S
EDEN PRAIRIE   CLOUDY    50  44  80 N5        29.80R
6HR MIN TEMP:  50; 6HR MAX TEMP:  55; 6HR PCP: TRACE;

SOUTH ST PAUL  MOSUNNY   50  48  90 CALM      29.81R
LAKE ELMO      PTSUNNY   50  48  93 CALM      29.82S
$$
MNZ001>005-007-008-013>017-022>024-027-028-231300-
   Northwest Minnesota

CITY           SKY/WX    TMP DP  RH WIND       PRES   REMARKS
BEMIDJI        RAIN      46  46  99 NE8       29.87R
HALLOCK        PTSUNNY   48  45  87 N13       30.01R
ROSEAU         CLOUDY    48  43  81 N13G18    29.97R
WARROAD        CLOUDY    48  43  81 NE15G23   29.98R
CROOKSTON      CLOUDY    46  45  93 N12G17    29.95S
FOSSTON        DRIZZLE   45  43  93 N13       29.91R
DETROIT LAKES  CLOUDY    45  45 100 N8        29.89R FOG
MOORHEAD       CLOUDY    46  45  93 N18       29.92R
PARK RAPIDS    LGT RAIN  47  44  90 N5        29.85R FOG
MAHNOMEN       CLOUDY    46  45  97 N14       29.89R
$$
MNZ006-009>011-018-025>026-231300-
   North Central Minnesota

CITY           SKY/WX    TMP DP  RH WIND       PRES   REMARKS
BAUDETTE       CLOUDY    47  43  86 N10       29.94R
FLAG ISLAND    CLOUDY    48  41  76 NE16G22   29.97R HAZE
INTL FALLS     LGT RAIN  46  43  89 NE10G20   29.91R VSB 1
6HR MIN TEMP:  46; 6HR MAX TEMP:  48; 6HR PCP:  0.05;

WASKISH        CLOUDY    46  45  93 NE9G20    29.91R
BIG FORK       CLOUDY    46  45  93 NE3       29.87R
LONGVILLE      CLOUDY    45  45 100 CALM      29.85S
GRAND RAPIDS   CLOUDY    45  43  93 N3        29.87S
CRANE LAKE     CLOUDY    45  45 100 N3        29.90R
ORR            DRIZZLE   45  43  93 CALM      29.85S
COOK           FOG       43  43 100 CALM      29.87S VSB 1/2
WALKER         CLOUDY    45  44  97 N3        29.86R
$$
MNZ012-019>021-037-231300-
   Northeast Minnesota

CITY           SKY/WX    TMP DP  RH WIND       PRES   REMARKS
DULUTH         CLOUDY    46  43  89 NE5       29.83R
6HR MIN TEMP:  46; 6HR MAX TEMP:  48;

ELY            FOG       36  36 100 CALM      29.86R VSB 1/4
HIBBING        CLOUDY    41  41 100 CALM      29.85S
EVELETH        CLOUDY    43  41  93 CALM      29.87R
DULUTH HARBOR  CLOUDY    46  45  93 CALM      29.86R
TWO HARBORS    CLOUDY    50  45  81 N5        29.83R
SILVER BAY     CLOUDY    46  45  93 CALM      29.83R
GRAND MARAIS     N/A     46  43  89 NE5       29.85R
G MARAIS ARPRT CLOUDY    43  39  87 N7        29.86R
$$
MNZ029>031-032-039>041-046>048-054>057-064-231300-
   West Central Minnesota

CITY           SKY/WX    TMP DP  RH WIND       PRES   REMARKS
FERGUS FALLS   DRIZZLE   46  46 100 N7        29.88R
WHEATON        LGT RAIN  46  45  93 NW12      29.91R
MORRIS         CLOUDY    46  46 100 N10       29.86R
ALEXANDRIA     CLOUDY    46  45  96 N7        29.86R
ELBOW LAKE     CLOUDY    46  46  99 NW10      29.87S
WADENA         LGT RAIN  45  45 100 N7        29.85R
GLENWOOD       CLOUDY    46  45  93 N7        29.85S
APPLETON       CLOUDY    48  46  93 N10       29.86S
BENSON         CLOUDY    48  46  93 N8        29.87S
ORTONVILLE     CLOUDY    46  45  93 N13       29.88R
MADISON        CLOUDY    50  50 100 N14       29.88R
WILLMAR        CLOUDY    48  46  93 NW6       29.86R
$$
MNZ033>034-036-042>043-049>051-058-059-231300-
   Central Minnesota

CITY           SKY/WX    TMP DP  RH WIND       PRES   REMARKS
ST CLOUD       CLOUDY    46  45  96 MISG      29.83S
6HR MIN TEMP:  45; 6HR MAX TEMP:  47; 6HR PCP: TRACE;

SAUK CENTRE    CLOUDY    45  44  96 N5        29.85R
PAYNESVILLE    CLOUDY    46  46 100 N5        29.85R
AITKIN         CLOUDY    45  43  93 N5        29.83S
PINE RIVER     CLOUDY    45  45 100 N3        29.88S
BRAINERD       CLOUDY    46  44  93 NE6       29.85R
STAPLES        CLOUDY    45  45 100 N7        29.85R
LONG PRAIRIE   CLOUDY    45  43  93 NW5       29.85R
LITTLE FALLS   CLOUDY    45  43  93 CALM      29.85R
LITCHFIELD     CLOUDY    46  46 100 N6        29.84S
BUFFALO        CLOUDY    48  44  87 NW3       29.84R
MAPLE LAKE     CLOUDY    47  46  95 NW6       29.84R
HUTCHINSON     LGT RAIN  47  46  96 NW8       29.85R
$$
MNZ037-044-045-052-053-231300-
   East Central Minnesota

CITY           SKY/WX    TMP DP  RH WIND       PRES   REMARKS
PRINCETON      CLOUDY    48  46  93 CALM      29.84R
MORA           CLOUDY    45  45 100 CALM      29.84S
CAMBRIDGE      CLOUDY    48  45  87 CALM      29.81S
RUSH CITY      PTSUNNY   45  44  95 N3        29.83R
MOOSE LAKE     CLOUDY    45  43  93 NE3       29.83R
HINCKLEY       PTSUNNY   45  45 100 N5        29.83S
CLOQUET        CLOUDY    46  43  87 N3        29.84R
MCGREGOR       CLOUDY    45  43  93 N5        29.85R
$$
MNZ071>073-080-081-089-090-097-098-231300-
   Southwest Minnesota

CITY           SKY/WX    TMP DP  RH WIND       PRES   REMARKS
MONTEVIDEO     LGT RAIN  46  46 100 N7        29.86S
CANBY          CLOUDY    48  46  92 CALM      29.89R
REDWOOD FALLS  LGT RAIN  48  45  89 NW6       29.85R FOG
OLIVIA         DRIZZLE   46  45  93 NW6       29.84S
PIPESTONE      CLOUDY    46  41  81 N9        29.86S
WINDOM         RAIN      46  45  93 N7        29.85R
WORTHINGTON    CLOUDY    46  44  93 NW10      29.87R
JACKSON        CLOUDY    46  43  87 CALM      29.85S
TRACY          DRIZZLE   47  46  97 N8        29.87R
SLAYTON        DRIZZLE   45  44  96 NW9       29.86S
$$
MNZ065>067-074>077-082>085-091>093-231300-
   South Central Minnesota

CITY           SKY/WX    TMP DP  RH WIND       PRES   REMARKS
MANKATO        LGT RAIN  47  46  97 NW7       29.83R
NEW ULM        DRIZZLE   46  45  93 NW9       29.84R
ST JAMES       DRIZZLE   46  45  93 NW10      29.85R
FAIRMONT       CLOUDY    48  45  89 NW10      29.84S
GLENCOE        LGT RAIN  48  48 100 NW7       29.82S
FARIBAULT      RAIN      48  46  93 W5        29.82R
OWATONNA       CLOUDY    50  46  87 NW7       29.81S
WASECA         DRIZZLE   50  46  87 NW8       29.82S
ALBERT LEA     CLOUDY    50  46  87 NW5       29.81S
$$
MNZ078>079-086>088-094>096-231300-
   Southeast Minnesota

CITY           SKY/WX    TMP DP  RH WIND       PRES   REMARKS
ROCHESTER      CLOUDY    49  48  97 NW7       29.80S
6HR MIN TEMP:  49; 6HR MAX TEMP:  52; 6HR PCP:  0.10;

RED WING       CLOUDY    52  46  82 CALM      29.79S
STANTON        CLOUDY    50  48  93 CALM      29.80S
DODGE CENTER   CLOUDY    48  46  93 CALM      29.80S
WINONA         CLOUDY    52  50  93 N5        29.78S
AUSTIN         CLOUDY    48  46  93 NW5       29.80S
PRESTON        CLOUDY    48  46  90 NW7       29.79S
$$
ABBREVIATIONS USED IN REMARKS
   TC - TEMPERATURES IN CELSIUS
  WCI - WIND CHILL INDEX
   HX - HEAT INDEX
  VSB - VISIBILITY
$$




USA.gov is the U.S. government's official web portal to all federal, state and local government web resources and services.